Regional Weather Roundup
Issued by NWS New Orleans/Baton Rouge, LA

Home | Current Version | Previous Version | Text Only | Print | Product List | Glossary On
Versions: 1 2 3 4 5 6 7 8 9 10 11 12 13 14 15 16 17 18 19 20 21 22 23 24 25 26 27 28 29 30 31 32 33 34 35 36 37 38 39 40 41 42 43 44 45 46 47 48 49 50
349
ASUS44 KLIX 252206
RWRLIX
NEW ORLEANS REGIONAL WEATHER ROUNDUP
NATIONAL WEATHER SERVICE NEW ORLEANS LA
500 PM CDT WED APR 25 2018

NOTE: "FAIR" INDICATES FEW OR NO CLOUDS BELOW 12,000 FEET WITH NO
      SIGNIFICANT WEATHER AND/OR OBSTRUCTIONS TO VISIBILITY.
      SKY/WX - SKY CONDITION AND SIGNIFICANT WEATHER.
      TMP - AIR TEMPERATURE.     DP    - DEWPOINT TEMPERATURE.
      RH  - RELATIVE HUMIDITY.   PRES  - PRESSURE.
      HI  - HEAT INDEX.          WCI   - WIND CHILL INDEX.

*  THESE STATIONS ARE NOT NWS OR FAA STATIONS AND ARE NOT UNDER
   NWS QUALITY CONTROL.

LAZ038-040-048-061>063-065>067-069-252300-
SOUTHEAST LOUISIANA

CITY           SKY/WX    TMP DP  RH WIND       PRES   REMARKS
N.O. INTL ARPT FAIR      82  58  43 N7        29.95F
N.O. LAKEFRONT FAIR      78  62  57 W9        29.95F
N.O. DOWNTOWN* FAIR      82  56  40 VRB5      29.96F
RESERVE*       FAIR      87  53  31 N3        29.95S
SLIDELL        FAIR      82  53  36 N7        29.93F
BATON ROUGE    FAIR      82  56  40 W6        29.95F
BOOTHVILLE     FAIR      77  61  57 SW6       29.96F
BELLE CHASSE   FAIR      81  58  45 VRB5      29.94F
BOGALUSA*      FAIR      82  49  31 N6        29.94F
GALLIANO*      CLOUDY    78  58  49 S8        29.96S
NEW ROADS*     FAIR      84  58  41 NE6       29.95F
GONZALES*      MOCLDY    82  57  43 N6        29.94F
HAMMOND*       FAIR      81  55  41 N6        29.94F
HOUMA*         MOSUNNY   81  59  47 SW9       29.95F
PORT FOURCHON* CLEAR     77  59  53 SW8       29.97S

$$

MSZ070-080>082-252300-
SOUTHERN MISSISSIPPI

CITY           SKY/WX    TMP DP  RH WIND       PRES   REMARKS
MCCOMB         FAIR      80  51  36 NW6       29.95F
GULFPORT       FAIR      83  53  35 N5        29.92F
BILOXI         FAIR      81  51  35 N8        29.92F
PASCAGOULA     FAIR      81  50  33 N12G18    29.93F
STENNIS ARPT*  SUNNY     81  54  39 NW6       29.93F

$$

COASTAL OBSERVATIONS
LAKE AND NEARSHORE STATIONS

STATION/POSITION TIME  SKY/WX   TEMP    WIND        PRES    WAVE
                                AIR SEA DIR/SP/G            HT/PER
                 (UTC)          (F)     (DEG/KT/KT) (MB)    (FT/S)
WAVELAND YACHT   2148            78 74  340/  8/ 10 1013.8
GRAND ISLE       2148            77 72  220/  1/  4 1014.7
SOUTHWEST PASS   2148            68 60  200/  2/  3 1015.4
NEW CANAL        2148            79 75  260/  5/  6 1014.2
SHELL BEACH      2148            76 78  310/  5/  6 1014.4

OFFSHORE STATIONS

STATION/POSITION TIME  SKY/WX   TEMP    WIND        PRES    WAVE
                                AIR SEA DIR/SP/G            HT/PER
                 (UTC)          (F)     (DEG/KT/KT) (MB)    (FT/S)
64 S DAUPHIN ISL 2150               74  290/  8/ 10 1014.7    1/ 4

$$





USA.gov is the U.S. government's official web portal to all federal, state and local government web resources and services.